Username:
Password:
This is my DDRecall account: 
Remember Me: 



Stay On Sync - The legend of MAX

The legend of MAX - Heavy

Foot Rating (Pre-X): 10, (X): 15

Steps: 500, Freezes: 3, Shocks: 0

1st2nd3rd4th5thDDRMAXDDRMAX2ExtremeSupernovaSupernova 2XX2X3EuromixEuromix 2Solo 2000


1Damien 1006 / 1006 (0)2005-02-03 07:56:45
2MegamanX 1006 / 1006 (0)2005-02-13 12:39:15
3EvilDave219 1006 / 1006 (0)2005-03-02 23:16:57
4robdog 1006 / 1006 (0)2005-03-26 03:48:41
5Gay Goblin *THATS ALOT OF NUTS!* 1006 / 1006 (0)2005-04-07 00:17:39
6PatMicMac 1006 / 1006 (0)2005-04-12 23:47:46
7BlueMystic 1006 / 1006 (0)2005-05-10 20:35:02
8Lil Q 1006 / 1006 (0)2005-05-21 02:28:00
9KK 1006 / 1006 (0)2005-06-06 13:50:40
10FoOtZ 1006 / 1006 (0)2005-07-01 21:42:41
11cha0ticz 1006 / 1006 (0)2005-07-25 00:08:32
12jboy aaa 1006 / 1006 (0)2005-08-08 20:54:41
13#CX.Z# 1006 / 1006 (0)2005-08-18 23:57:33
14Jiri 1006 / 1006 (0)2005-09-16 21:28:39
15Technick 1006 / 1006 (0)2005-10-06 15:12:35
16Special Midget 1006 / 1006 (0)2005-10-17 23:15:04
17iamchris4life 1006 / 1006 (0)2005-12-04 00:38:28
18Mrbubbles00482 1006 / 1006 (0)2005-12-20 22:52:42
19Matt300 1006 / 1006 (0)2006-01-14 04:13:45
20Kazoo 1006 / 1006 (0)2006-03-22 16:15:32
21Joaquin 1006 / 1006 (0)2006-06-04 22:28:20
22mr.miyagi 1006 / 1006 (0)2006-07-07 15:35:58
23Insanemidget.Take2 1006 / 1006 (0)2006-07-17 21:34:01
24n00bl4r 1006 / 1006 (0)2006-07-29 00:20:09
25herbiesakura 1006 / 1006 (0)2006-08-04 09:54:40
26Insanemidget 1006 / 1006 (0)2006-08-26 22:33:40
27Bad_ass_DDRer 1006 / 1006 (0)2006-10-10 23:22:28
28hi gice 1006 / 1006 (0)2007-02-17 13:36:39
29Silence 1006 / 1006 (0)2007-02-26 11:01:09
30CartoonHero 1006 / 1006 (0)2007-04-19 20:15:08
31Luc 1006 / 1006 (0)2007-11-05 16:37:07
32GAMMA 1006 / 1006 (0)2007-11-05 18:47:50
33kalamari219 1006 / 1006 (0)2007-11-06 06:22:56
34BNS.Nima 1006 / 1006 (0)2007-12-24 05:02:11
35BlAcK MAGIK 1006 / 1006 (0)2008-03-11 22:50:32
36DJ Sterf 1006 / 1006 (0)2008-04-23 14:54:46
37BRM 1006 / 1006 (0)2008-05-01 19:10:00
38ExtremeMax SM 1006 / 1006 (0)2008-05-11 16:06:21
39El Estepper =D 1006 / 1006 (0)2008-05-14 20:38:19
40CoreyBlaze 1006 / 1006 (0)2008-05-14 23:06:40
414can.brian 1006 / 1006 (0)2008-05-21 12:34:57
42Goemon! 1006 / 1006 (0)2008-05-21 19:36:52
43Leon Twix 1006 / 1006 (0)2008-06-12 00:41:59
44Big Matt 1006 / 1006 (0)2008-06-28 01:43:47
45OmegAlex 1006 / 1006 (0)2008-07-10 07:27:48
46MACCAMANATFTB 1006 / 1006 (0)2008-07-11 11:09:27
47EVAAAN 1006 / 1006 (0)2008-07-29 20:13:54
48Nickolas "Electrical Socket Johnson" J. Mariani 1006 / 1006 (0)2008-08-11 18:55:01
49dr.d 1006 / 1006 (0)2008-12-29 04:41:03
50Hostess 1006 / 1006 (0)2009-01-26 12:00:56
51Milo234 1006 / 1006 (0)2009-01-31 02:03:18
52kydzyr0 1006 / 1006 (0)2009-03-13 02:08:11
53Cap! 1006 / 1006 (0)2009-04-27 21:59:57
54DM Shaggy 1006 / 1006 (0)2009-07-21 00:07:42
55Brendino 1006 / 1006 (0)2009-08-30 02:00:21
56Jimbo22291 1006 / 1006 (0)2009-10-28 18:20:00
57hf230 1006 / 1006 (0)2009-12-06 01:06:46
58[ICNH] 1006 / 1006 (0)2009-12-07 16:21:36
59-dark-xuxa 1006 / 1006 (0)2010-01-12 22:53:30
60Jason 1006 / 1006 (0)2010-01-27 02:37:52
61Ninjafar 1006 / 1006 (0)2010-03-23 23:18:28
62Kristoph 1006 / 1006 (0)2010-05-15 02:47:36
63KANYE WEST 1006 / 1006 (0)2010-05-15 10:00:21
64Marco Polo 1006 / 1006 (0)2010-07-01 18:14:09
65Fat Josh 1006 / 1006 (0)2010-09-06 03:45:20
66Wulfgearr 1006 / 1006 (0)2011-03-12 03:36:31
67seishinbyou 1006 / 1006 (0)2012-01-16 14:37:53
68Trinidad 1006 / 1006 (0)2014-01-31 17:35:48
69Aoreo 1006 / 1006 (0)2014-08-24 23:50:49
70Mapo 1006 / 1006 (0)2015-08-15 23:50:04
71swagman 1006 / 1006 (0)2015-08-17 19:40:40
72Yung_Z0rk 1006 / 1006 (0)2015-11-27 00:03:26
73SDN.DiscoBobbyPARANOiA 1006 / 1006 (0)2017-07-24 16:02:11
74DjStunna 1005 / 1006 (1)2005-09-25 02:03:37
75Starman Deluxe 1005 / 1006 (1)2005-10-28 13:02:26
76genekim 1005 / 1006 (1)2006-08-05 23:30:14
77JetWorld 1005 / 1006 (1)2006-08-16 22:34:58
78IHYD.Tiza 1005 / 1006 (1)2007-01-27 04:22:02
79DwP.Bang 1005 / 1006 (1)2008-01-21 11:49:04
80Fep+J 1005 / 1006 (1)2008-04-19 02:03:06
81[team bpm jodio] ronx 1005 / 1006 (1)2008-09-04 17:20:10
82riodo 1005 / 1006 (1)2008-12-28 23:34:02
83PARANO!A Boi 1005 / 1006 (1)2009-01-10 13:29:36
84Daaanty 1005 / 1006 (1)2009-09-09 08:44:56
85[DVogan11] 1005 / 1006 (1)2009-09-13 17:38:08
86nnnnnevets 1005 / 1006 (1)2010-03-14 23:05:53
87breakdownpyk 1005 / 1006 (1)2010-05-05 20:54:39
88JMS. 1005 / 1006 (1)2010-06-17 11:10:52
89Dark Ptt 1005 / 1006 (1)2010-07-26 01:38:32
90-Team PAP- 3X 1005 / 1006 (1)2010-09-24 01:38:24
91nemesis 1005 / 1006 (1)2011-01-15 21:42:37
92ddrlizyand eddie 1005 / 1006 (1)2013-02-12 11:31:46
93JDefiant9 1005 / 1006 (1)2017-08-15 03:22:09
94F.Y.R.E 1004 / 1006 (2)2005-02-22 11:51:11
95NekoSempai 1004 / 1006 (2)2005-07-09 22:41:22
96Sk37ch 1004 / 1006 (2)2005-07-11 15:27:21
97Eagleboy 1004 / 1006 (2)2005-08-07 15:38:06
98Devine 1004 / 1006 (2)2005-09-10 13:59:41
99Morfos 1004 / 1006 (2)2006-01-03 16:33:03
100PlasmaVenom 1004 / 1006 (2)2006-04-10 15:08:42
101relic12 1004 / 1006 (2)2006-05-27 23:17:54
102DeeEckzWhy! 1004 / 1006 (2)2006-12-28 13:12:21
103drano 1004 / 1006 (2)2007-07-08 19:04:29
104--Muffinz.Weak SauC3.STAH WORZ-- 1004 / 1006 (2)2008-07-27 21:31:50
105Boochypa 1004 / 1006 (2)2009-04-27 21:27:47
106Ruzy 1004 / 1006 (2)2009-08-03 14:54:27
107reboman 1004 / 1006 (2)2009-11-21 16:19:28
108D-Code 1004 / 1006 (2)2010-01-16 18:45:50
109MusicalRose 1004 / 1006 (2)2012-04-04 19:42:58
110v4xtreme 1004 / 1006 (2)2017-03-26 09:05:40
111mcV 1003 / 1006 (3)2005-12-16 03:27:44
112mDaWg 1003 / 1006 (3)2006-05-11 21:12:03
113aznkid 1003 / 1006 (3)2007-02-05 23:32:50
114(OZA) 1003 / 1006 (3)2007-04-10 07:45:17
115Adio 1003 / 1006 (3)2007-05-18 02:25:44
116K-Stro 1003 / 1006 (3)2007-08-24 03:07:23
117Ahi7.G3nGar 1003 / 1006 (3)2008-03-29 21:17:42
118The Devil-Z 1003 / 1006 (3)2008-05-06 20:16:43
119random1 1003 / 1006 (3)2008-05-21 16:00:34
1203X 1003 / 1006 (3)2008-07-28 10:27:00
121BLAHBLAH 1003 / 1006 (3)2008-09-25 20:32:37
122Davo 1003 / 1006 (3)2009-01-03 19:39:57
123Sword 1003 / 1006 (3)2009-02-12 10:00:18
124VivaLaMoo 1003 / 1006 (3)2009-02-28 14:01:35
125Zorachus 1003 / 1006 (3)2009-07-04 11:33:49
126VivaLaMoochicken 1003 / 1006 (3)2010-01-24 23:14:34
127Ninevolt 1003 / 1006 (3)2011-02-24 22:50:40
128NeoCyst 1003 / 1006 (3)2015-08-09 03:33:56
129AndyBurnsDDR270 1003 / 1006 (3)2015-10-04 22:14:07
130DBLOCK 1002 / 1006 (4)2005-05-11 19:26:38
131mamuru 1002 / 1006 (4)2005-07-03 03:03:02
132Misterio 1002 / 1006 (4)2005-08-11 23:48:00
133TJ3 1002 / 1006 (4)2005-10-19 19:59:18
134-Greggles- 1002 / 1006 (4)2005-10-25 18:13:22
135DREWspeedymix 1002 / 1006 (4)2006-03-07 18:32:49
136B!G R&D MACH!N 1002 / 1006 (4)2006-06-08 19:16:28
137DGCFlipMan 1002 / 1006 (4)2006-07-10 09:31:07
138papayasown 1002 / 1006 (4)2006-08-29 13:20:53
139BROSONI- 1002 / 1006 (4)2007-05-13 00:43:28
140Boots 1002 / 1006 (4)2007-05-22 20:25:38
141Annoying Rmt Kid 1002 / 1006 (4)2007-07-27 01:29:08
142SovietPowerSupreme 1002 / 1006 (4)2007-08-31 22:12:14
143BNS.Adrian 1002 / 1006 (4)2007-10-11 13:48:05
144DumbDancingRetard 1002 / 1006 (4)2008-03-08 15:34:22
145[MIH] SP3flip 1002 / 1006 (4)2008-05-26 20:47:49
146King of Light 1002 / 1006 (4)2009-04-16 18:29:24
147Puerto Rican Heat 1002 / 1006 (4)2009-04-24 15:44:23
148pac-man 1002 / 1006 (4)2009-08-01 23:27:27
149ranatalus 1002 / 1006 (4)2010-04-30 20:08:00
150SpenCity 1002 / 1006 (4)2010-07-18 22:58:07
151Nate from RI 1002 / 1006 (4)2011-03-04 21:36:16
152mio 1002 / 1006 (4)2013-07-12 04:16:01
153qkumbr 1001 / 1006 (5)2005-02-06 00:20:26
154Smoke 1001 / 1006 (5)2005-04-16 00:58:20
155Franz 1001 / 1006 (5)2005-09-12 18:33:28
156Chris - BUTT 1001 / 1006 (5)2005-11-28 21:01:48
157LiLTT 1001 / 1006 (5)2006-07-02 18:06:51
158Darksyde 1001 / 1006 (5)2006-08-27 23:10:39
159foxxymito 1001 / 1006 (5)2007-03-22 12:24:15
160Afrobolt. 1001 / 1006 (5)2007-09-10 12:26:08
161NCMILK 1001 / 1006 (5)2008-03-24 09:00:01
162TEEX 1001 / 1006 (5)2008-12-14 00:49:31
163heyitsrobby 1001 / 1006 (5)2009-05-08 00:15:52
164AllusiveGold 1001 / 1006 (5)2009-07-24 04:09:38
165Kdizzle 1001 / 1006 (5)2009-08-12 15:53:33
166Joe P. 1001 / 1006 (5)2010-04-05 10:33:56
167BEAR 1000 / 1006 (6)2005-12-27 07:52:02
168Niggerface 1000 / 1006 (6)2006-04-26 23:09:22
169OmegA 1000 / 1006 (6)2006-06-13 20:04:28
170Pyro 1000 / 1006 (6)2006-08-04 11:13:06
171IHYD.JJK 1000 / 1006 (6)2007-04-12 02:18:29
172PUKZ 1000 / 1006 (6)2007-07-27 14:26:45
173brian devore 1000 / 1006 (6)2008-05-15 17:11:28
174Roy 1000 / 1006 (6)2008-06-05 18:25:03
175Kalek 1000 / 1006 (6)2008-07-25 23:47:49
176tmon 1000 / 1006 (6)2008-11-06 19:46:19
177Vito 1000 / 1006 (6)2008-11-18 23:56:57
178sleeve 1000 / 1006 (6)2008-12-26 16:30:13
179Belon 1000 / 1006 (6)2009-04-21 15:21:32
180Chikito^2 1000 / 1006 (6)2009-08-09 22:22:55
181Phone 1000 / 1006 (6)2009-11-21 21:05:45
182MilkChan 1000 / 1006 (6)2011-01-03 02:15:44
1832ktukan 1000 / 1006 (6)2012-09-18 21:57:09
184camsta4 1000 / 1006 (6)2015-01-19 22:46:57
185Flashfire 999 / 1006 (7)2005-06-09 00:07:21
186SBK 999 / 1006 (7)2005-09-15 00:00:20
187DukAmok 999 / 1006 (7)2005-10-21 15:12:02
188kyousuke 999 / 1006 (7)2006-02-13 17:53:50
189V-Ice 999 / 1006 (7)2006-04-02 12:15:45
190Ms. Vogue 999 / 1006 (7)2006-06-12 16:33:55
191SDN.***WILLIS*** 999 / 1006 (7)2006-07-14 23:46:23
192FABO!!! 999 / 1006 (7)2006-11-23 19:28:29
193Spork 999 / 1006 (7)2007-07-14 23:39:11
194Adam1080 999 / 1006 (7)2007-10-18 09:05:16
195[EPJ]NappyJin 999 / 1006 (7)2007-10-29 10:26:56
196godai 999 / 1006 (7)2008-02-18 20:19:59
197Dancetyger 999 / 1006 (7)2008-10-04 19:03:52
198[Pad Perfects] red_dragon 999 / 1006 (7)2008-10-27 00:58:28
199JeffSledge 999 / 1006 (7)2009-09-02 05:53:47
200Johan 999 / 1006 (7)2010-07-05 18:56:11
201ZachATTACK!! 999 / 1006 (7)2010-10-25 16:24:50
202NChiko 999 / 1006 (7)2012-11-13 15:26:07
203Scrub Jake 998 / 1006 (8)2005-05-05 22:06:44
204ZeroRush 998 / 1006 (8)2005-07-14 22:03:23
205turbo jjjang 998 / 1006 (8)2005-07-16 19:04:03
206Dman 998 / 1006 (8)2005-11-18 16:19:51
207Lexmark 998 / 1006 (8)2005-12-22 11:42:37
208Kasu 998 / 1006 (8)2005-12-29 18:00:23
209kay0ss 998 / 1006 (8)2006-02-17 03:43:45
210HotJava 998 / 1006 (8)2006-03-03 02:04:29
211eVILPeeR 998 / 1006 (8)2006-05-18 05:49:58
212Moogle <3 998 / 1006 (8)2006-07-06 01:13:53
213wu_tang69 998 / 1006 (8)2006-10-23 14:13:09
214NICKBOOOARDKID 998 / 1006 (8)2007-03-10 20:30:22
215BBQ 998 / 1006 (8)2007-08-05 01:30:18
216Romanedge 998 / 1006 (8)2008-02-05 02:03:29
217HSV.TorAy 998 / 1006 (8)2008-02-09 19:14:52
218Bodo 998 / 1006 (8)2008-04-29 16:09:17
219d00d 998 / 1006 (8)2008-09-13 03:02:23
220Zachary"DA BUSSINESS/BIG CITY SLIDER"Joseph Bader 998 / 1006 (8)2008-10-18 17:53:21
221NWFL.Bumm 998 / 1006 (8)2009-03-14 23:19:16
222Justin "Salty Jamalty" W. Bader 998 / 1006 (8)2009-03-30 13:01:53
223mute 998 / 1006 (8)2010-06-09 15:10:18
224videokyd 998 / 1006 (8)2010-07-12 00:16:13
225flcl573 998 / 1006 (8)2010-11-06 21:42:36
226Macadamia 997 / 1006 (9)2005-11-27 23:05:52
227BeyondDark 997 / 1006 (9)2006-06-11 13:12:51
228AxioM 997 / 1006 (9)2006-07-09 23:40:21
229Eluyes 997 / 1006 (9)2007-03-09 17:24:31
230admstyles 997 / 1006 (9)2007-04-19 00:20:37
231Swizzle 997 / 1006 (9)2007-05-21 23:40:51
232Lordd_Magus 997 / 1006 (9)2007-10-07 13:29:09
233Camerone 997 / 1006 (9)2008-01-12 04:16:57
234AndyFreak457 997 / 1006 (9)2008-08-10 00:16:49
235Arvin 997 / 1006 (9)2008-09-21 02:19:29
236TRANS 997 / 1006 (9)2008-12-27 06:28:12
237littlesushi 997 / 1006 (9)2009-02-23 20:39:52
238Karl 997 / 1006 (9)2009-05-01 16:06:52
239aznator 997 / 1006 (9)2009-07-22 22:31:57
240discovigilante 997 / 1006 (9)2010-05-15 07:43:32
241Faker13 997 / 1006 (9)2015-08-26 15:54:54
242JonathanPantsDDR 996 / 1006 (10)2005-09-06 20:41:16
243amoro 996 / 1006 (10)2005-11-06 17:03:59
244Brazoliange 996 / 1006 (10)2006-09-26 17:55:36
245.FluX 996 / 1006 (10)2007-05-02 09:36:08
246Darky 996 / 1006 (10)2008-09-03 00:09:03
247JC of Latter Day Saints 996 / 1006 (10)2009-09-17 02:28:44
248GamesterX23 996 / 1006 (10)2010-03-08 12:22:05
249AndE 996 / 1006 (10)2010-05-20 18:46:37
250Nana-Az7 995 / 1006 (11)2005-07-12 13:42:02
251arn 995 / 1006 (11)2005-08-12 21:27:52
252ViPeRs-VeNoM 995 / 1006 (11)2005-09-06 17:39:34
253Vaderseven 995 / 1006 (11)2005-12-14 21:33:13
254Toady 995 / 1006 (11)2006-03-21 02:50:58
255rash 995 / 1006 (11)2006-06-06 08:30:08
256Kenji 995 / 1006 (11)2006-08-10 20:25:44
257Adamn 995 / 1006 (11)2007-01-18 17:17:47
258XxB3NxX 995 / 1006 (11)2007-03-31 12:15:52
259sumeet 995 / 1006 (11)2007-04-03 17:32:08
260DJFlip 995 / 1006 (11)2007-06-06 15:33:55
261Cowgirl! 995 / 1006 (11)2007-08-14 16:16:00
262DJ300 995 / 1006 (11)2008-01-28 04:19:56
263Cerecel 995 / 1006 (11)2008-04-19 01:21:59
264Matt Lowe 995 / 1006 (11)2008-08-26 00:22:36
265Skeeter 995 / 1006 (11)2009-01-19 21:51:25
266Holland 995 / 1006 (11)2011-02-02 13:58:28
267Pushmataha 995 / 1006 (11)2014-10-10 19:03:10
268Regulator 995 / 1006 (11)2017-08-11 18:36:06
269WinDEU 994 / 1006 (12)2005-04-12 14:38:02
270licyeus 994 / 1006 (12)2005-05-01 16:04:18
271Darkdog444 994 / 1006 (12)2005-08-07 03:03:27
272DCstar 994 / 1006 (12)2005-12-01 19:50:47
273Jonah 994 / 1006 (12)2006-01-02 23:20:31
274Cynic 994 / 1006 (12)2006-02-07 18:25:02
275Razor 994 / 1006 (12)2007-08-06 12:28:15
276th34nt0ni0 994 / 1006 (12)2007-10-03 12:27:45
277Spitz*ONE 994 / 1006 (12)2008-04-27 20:42:25
278RobNoBarKid 994 / 1006 (12)2008-05-03 22:13:55
279Jamis 994 / 1006 (12)2008-07-12 13:23:28
280--muffinz.jotranny.bitsaglass-- 994 / 1006 (12)2008-12-30 00:41:55
281Nuust 994 / 1006 (12)2010-07-17 02:18:42
282gtc 994 / 1006 (12)2010-10-08 21:53:53
283Chubaka 994 / 1006 (12)2013-11-18 21:41:17
284Icey 994 / 1006 (12)2014-11-30 16:24:37
285CuoReNeRo 993 / 1006 (13)2005-02-16 11:32:07
286Darkwing Duck 993 / 1006 (13)2006-03-27 22:00:44
287Rojo-Ky 993 / 1006 (13)2006-09-18 09:18:06
288Ptt(T-T) 993 / 1006 (13)2007-03-13 10:39:07
289Mr.D 993 / 1006 (13)2007-09-16 23:19:15
290ph0en1x 993 / 1006 (13)2007-12-06 21:10:27
291Z Matrix 993 / 1006 (13)2008-07-16 03:32:17
292Crono432 993 / 1006 (13)2008-11-04 15:41:09
293Rykenma 993 / 1006 (13)2009-04-10 02:35:00
294Little Matt 993 / 1006 (13)2009-07-05 15:29:19
295Steve L from CT 993 / 1006 (13)2010-10-23 23:32:22
296damienpa 993 / 1006 (13)2012-06-08 16:12:09
297Bluhr 993 / 1006 (13)2015-10-07 17:04:13
298Foosimoo 992 / 1006 (14)2006-09-19 17:29:02
299Dayreon 992 / 1006 (14)2007-07-06 12:43:52
300MFB 992 / 1006 (14)2008-06-10 00:35:11
301climhazzard 992 / 1006 (14)2008-09-14 00:12:50
302OSC.Suicide 992 / 1006 (14)2008-11-11 06:09:41
303(^3^) 991 / 1006 (15)2006-03-16 05:51:41
304testbug0 991 / 1006 (15)2006-08-16 13:12:12
305[MIH] Laotian 991 / 1006 (15)2007-01-05 22:52:21
306mrswan 991 / 1006 (15)2007-01-09 11:44:23
307zacebdal 991 / 1006 (15)2007-04-12 12:36:34
308CSB 991 / 1006 (15)2007-08-12 00:09:13
309insomnia 991 / 1006 (15)2007-10-10 21:44:43
310MaxxPARANOiA 990 / 1006 (16)2005-04-17 22:13:48
311Matsownsyou 990 / 1006 (16)2005-08-15 15:10:26
312JJSz 990 / 1006 (16)2006-01-22 13:35:13
313sakuneko 990 / 1006 (16)2006-07-04 23:43:53
314BotD 990 / 1006 (16)2006-08-04 20:11:02
315MaO88176 990 / 1006 (16)2006-08-05 19:33:56
316Naoto 990 / 1006 (16)2007-03-20 18:48:57
317Fiasco 990 / 1006 (16)2007-08-09 22:22:43
318Zondrina 990 / 1006 (16)2007-12-06 23:14:14
319MaxxM 990 / 1006 (16)2008-02-02 11:55:12
320John Desire 990 / 1006 (16)2010-06-03 15:00:55
321Phoenix_Skyy 990 / 1006 (16)2010-06-17 01:44:17
322konata is my waifu 990 / 1006 (16)2011-03-11 19:47:20
323sYn 990 / 1006 (16)2011-04-26 04:11:55
324Wasabi1490 989 / 1006 (17)2005-07-28 18:36:17
325PWNU 989 / 1006 (17)2005-10-11 18:32:06
326slick 989 / 1006 (17)2006-08-31 18:53:30
327Anuj 989 / 1006 (17)2006-10-03 21:30:23
328kingtimmy 989 / 1006 (17)2006-10-25 18:30:53
329Will 989 / 1006 (17)2006-12-07 02:28:56
330cramer 989 / 1006 (17)2007-03-26 01:02:52
331Volkov 989 / 1006 (17)2007-05-23 11:44:14
332The Unforgiven 989 / 1006 (17)2007-05-29 10:20:14
333charlie 989 / 1006 (17)2007-06-10 12:49:38
334JRom 989 / 1006 (17)2007-08-03 14:56:58
335Andre 989 / 1006 (17)2007-11-07 19:57:07
336Zetorux 989 / 1006 (17)2008-01-07 16:40:14
337MANOK 989 / 1006 (17)2008-02-01 04:39:58
338PharaohJeff 989 / 1006 (17)2008-02-28 14:41:22
339Figgy20000 989 / 1006 (17)2008-03-03 16:27:16
340Tanooki 989 / 1006 (17)2008-03-14 18:17:07
341daandrew19 989 / 1006 (17)2008-05-18 22:53:26
342Big B 989 / 1006 (17)2008-06-06 20:38:45
343NinjaHero 989 / 1006 (17)2008-10-17 00:10:52
344Zebra 989 / 1006 (17)2009-06-03 13:23:57
345SDN.BeastieBoys4Life 989 / 1006 (17)2009-08-16 12:24:24
346Alezay 988 / 1006 (18)2005-03-30 19:11:40
347lil'mike 988 / 1006 (18)2005-06-19 01:24:54
348nano 988 / 1006 (18)2006-01-16 21:00:08
349Zvidun 988 / 1006 (18)2006-07-26 00:25:40
350Shadow_Dragonz 988 / 1006 (18)2006-10-25 20:19:10
351Dr_MaxX 988 / 1006 (18)2007-07-24 02:08:48
352Masterr25 988 / 1006 (18)2008-09-04 11:10:18
353zomgitsjoorz 988 / 1006 (18)2008-09-19 21:26:08
354RiChY 988 / 1006 (18)2009-03-23 12:26:48
355flotastic 988 / 1006 (18)2009-04-13 00:09:40
356Dark666 988 / 1006 (18)2009-09-18 17:03:24
357Flayd 988 / 1006 (18)2010-10-23 20:02:28
358Syncognition 987 / 1006 (19)2005-03-03 12:38:46
359madman 987 / 1006 (19)2005-10-22 17:51:13
360stefank687 987 / 1006 (19)2006-04-07 21:57:23
361DDRDav!d 987 / 1006 (19)2006-09-17 23:16:53
362Scuba_Steve 987 / 1006 (19)2007-02-22 13:15:28
363mattlockaby 987 / 1006 (19)2007-07-29 00:49:23
364apm 987 / 1006 (19)2007-12-16 17:16:31
365starb0i27 987 / 1006 (19)2008-07-08 23:42:54
366Pirin 987 / 1006 (19)2009-03-31 02:25:34
367Andy-rew 987 / 1006 (19)2009-04-05 18:48:08
368GaMiNg_TuKaN_PR 987 / 1006 (19)2009-12-30 20:55:42
369damnitzcharlie 986 / 1006 (20)2005-08-14 01:02:11
370MRJ8 986 / 1006 (20)2005-10-13 16:59:10
371MTJ 986 / 1006 (20)2006-04-17 18:26:56
372T33J4Y 986 / 1006 (20)2006-06-15 16:10:29
373Cloud_ddr 986 / 1006 (20)2006-07-30 05:54:49
374Oni_ 986 / 1006 (20)2007-01-19 04:48:05
375NeelHatesYou<3 986 / 1006 (20)2007-01-23 14:34:38
376zdr 986 / 1006 (20)2007-10-02 01:31:12
377max. 986 / 1006 (20)2008-07-08 02:29:24
378MURDER.MDGT 986 / 1006 (20)2010-04-25 00:07:28
379Sonic573 986 / 1006 (20)2013-01-24 18:18:23
380Iceman0736 985 / 1006 (21)2005-07-02 16:08:29
381t3ch 985 / 1006 (21)2005-08-04 22:19:54
382The Nail 985 / 1006 (21)2005-08-10 02:27:37
383Yieep 985 / 1006 (21)2006-08-03 12:50:30
384Kettchup 985 / 1006 (21)2006-10-05 14:11:09
385kasadea87 985 / 1006 (21)2007-01-17 21:51:08
386K!NG 985 / 1006 (21)2009-06-11 11:13:52
387Sigma 985 / 1006 (21)2010-01-22 17:25:31
388.SiN 984 / 1006 (22)2005-02-11 17:20:37
389NiNzA12345 984 / 1006 (22)2005-05-07 02:08:17
390Delusion 984 / 1006 (22)2005-05-21 08:23:26
391fuckinjoe 984 / 1006 (22)2005-09-06 21:35:42
392newman 984 / 1006 (22)2006-01-09 04:10:15
393[Senzafine] 984 / 1006 (22)2006-12-28 01:06:23
394-Chef- 984 / 1006 (22)2007-01-22 14:13:18
395Devon 984 / 1006 (22)2007-04-29 15:17:27
396Y3llow 984 / 1006 (22)2008-01-21 00:04:55
397JaredB 984 / 1006 (22)2008-08-22 02:54:55
398Patchworks 984 / 1006 (22)2010-05-16 13:01:03
399billyjr82 983 / 1006 (23)2006-02-09 18:20:51
400the bizznos 983 / 1006 (23)2006-04-25 16:47:14
401Jon owns 3x solo! 983 / 1006 (23)2006-05-25 14:09:12
402nutb 983 / 1006 (23)2006-12-28 10:47:48
403Jose 983 / 1006 (23)2007-01-04 14:23:27
404MAAAX_himself 983 / 1006 (23)2008-02-05 14:25:03
405tekkie 983 / 1006 (23)2008-02-11 00:49:06
406superkirby7 983 / 1006 (23)2009-03-31 13:39:29
407Shady 982 / 1006 (24)2005-05-01 20:58:36
408TyTyof3D 982 / 1006 (24)2005-06-17 00:35:43
409TyTy573 982 / 1006 (24)2006-01-17 02:33:15
410The_Fox! 982 / 1006 (24)2006-02-20 21:55:18
411terminator19 982 / 1006 (24)2006-06-26 12:59:51
412Bonzo 982 / 1006 (24)2006-07-27 10:23:40
413Yuka 982 / 1006 (24)2007-03-16 23:13:09
414TheCosmicPope 982 / 1006 (24)2007-06-18 13:42:32
415badDDRboy 982 / 1006 (24)2008-03-20 03:17:06
416binky42 982 / 1006 (24)2008-05-28 22:08:08
417pHatboi7211 982 / 1006 (24)2011-12-22 00:26:47
418tomtard 981 / 1006 (25)2005-06-02 06:21:37
419DDRfreak_7369 981 / 1006 (25)2006-01-15 11:20:26
420Khai of BluR 981 / 1006 (25)2006-02-02 18:34:53
421KMD 981 / 1006 (25)2006-04-10 07:21:18
422yatz 981 / 1006 (25)2006-06-14 22:16:05
423SiKrAiKeN 981 / 1006 (25)2006-09-05 22:10:35
424capajoe 981 / 1006 (25)2007-04-05 02:43:48
425Mystique 981 / 1006 (25)2007-05-10 19:13:34
426[MIH] Shadowcol 981 / 1006 (25)2007-07-10 16:15:22
427Extravaganza 981 / 1006 (25)2007-08-11 00:42:47
428Keef 981 / 1006 (25)2008-07-08 01:29:04
429maxx_revolution 981 / 1006 (25)2008-11-01 13:05:56
430hurtpiggypig 981 / 1006 (25)2009-09-16 08:06:55
431Kracker 980 / 1006 (26)2005-05-01 20:51:41
432-StrouD- 980 / 1006 (26)2005-07-07 19:59:49
433PhazonElite 980 / 1006 (26)2005-08-19 15:08:17
434FiReMaKeR 980 / 1006 (26)2006-05-01 14:46:56
435Wick 979 / 1006 (27)2005-06-15 21:21:23
436Altima Mantoid 979 / 1006 (27)2005-06-19 02:49:14
437LollipopGrl 979 / 1006 (27)2005-11-10 20:57:11
438saxyhoops 979 / 1006 (27)2006-06-19 23:14:27
439Kyouichi 979 / 1006 (27)2008-01-28 11:38:18
440Arbel 979 / 1006 (27)2008-04-09 17:52:49
441MaxJet 979 / 1006 (27)2008-04-20 06:33:41
442Zash 979 / 1006 (27)2008-05-14 00:37:44
443Takudo 979 / 1006 (27)2008-05-24 02:22:44
444KeLoO 979 / 1006 (27)2009-03-10 18:19:56
445Galo 979 / 1006 (27)2010-01-03 01:29:48
446Jan 979 / 1006 (27)2010-02-18 23:07:30
447Drummer 978 / 1006 (28)2005-05-09 13:32:15
448ping573 978 / 1006 (28)2005-06-19 01:18:11
449Hoodie 978 / 1006 (28)2005-07-16 22:18:44
450Radio 978 / 1006 (28)2005-07-24 02:58:31
451Dmoney 978 / 1006 (28)2005-07-25 18:06:35
452Boxy 978 / 1006 (28)2006-07-01 13:13:47
453Mr.Seven 978 / 1006 (28)2006-07-03 07:35:07
454GodsBlindMartyr 978 / 1006 (28)2006-07-05 01:32:00
455Zackybear 978 / 1006 (28)2006-08-03 21:52:16
456Rookie 978 / 1006 (28)2006-09-18 04:16:56
457SoDeepPolaris 978 / 1006 (28)2007-10-22 20:24:21
458friction 977 / 1006 (29)2006-06-26 16:32:25
459CorruptorOfMinorPotatoes 977 / 1006 (29)2007-03-05 00:44:51
460Mr. Chandler 977 / 1006 (29)2007-05-01 16:28:30
461madbutter 977 / 1006 (29)2007-08-09 21:30:23
462shawn112 977 / 1006 (29)2008-07-14 09:28:08
463Goldee 977 / 1006 (29)2010-04-13 00:48:59
464Chaddly 976 / 1006 (30)2005-04-08 09:05:02
465JoJoMeXi 976 / 1006 (30)2005-04-28 15:31:59
466-=Jynx=- 976 / 1006 (30)2005-08-24 20:59:16
467Haggar 976 / 1006 (30)2005-08-30 08:15:04
468Hippo 976 / 1006 (30)2005-11-05 15:47:54
469Foti 976 / 1006 (30)2006-04-22 00:59:00
470Scrub 976 / 1006 (30)2006-06-29 20:32:27
471Deku Nuts 976 / 1006 (30)2006-08-28 21:30:43
472hxcCAKE 976 / 1006 (30)2007-08-19 19:36:02
473hippotz 976 / 1006 (30)2008-03-18 23:30:26
474DBFriday 976 / 1006 (30)2008-04-12 01:46:57
475Fil 976 / 1006 (30)2008-08-31 15:16:07
476FLeXX 976 / 1006 (30)2010-04-30 03:10:42
477Ghaleon 975 / 1006 (31)2005-07-20 00:00:33
478alexquick 975 / 1006 (31)2005-11-07 20:36:03
479Veguro 975 / 1006 (31)2007-05-12 23:17:25
480dre 975 / 1006 (31)2007-05-13 00:16:49
481Gazebo 975 / 1006 (31)2008-10-22 17:06:56
482Xenon Screams 975 / 1006 (31)2009-02-28 20:20:33
483ElderOfNar 975 / 1006 (31)2011-01-04 23:27:32
484Devman 974 / 1006 (32)2005-06-05 19:28:31
485DJ Era 974 / 1006 (32)2005-09-01 23:15:41
486sephiroth1024 974 / 1006 (32)2006-02-19 18:50:06
487[MIH] Dakota 974 / 1006 (32)2007-03-21 21:24:44
488Crono 974 / 1006 (32)2008-04-26 04:21:30
489TyGeR 973 / 1006 (33)2005-05-10 18:34:09
490Sora 973 / 1006 (33)2006-04-10 03:05:43
491Milo234 Shuffle 973 / 1006 (33)2006-09-02 20:14:47
492Mr. Gibson 973 / 1006 (33)2006-10-24 22:10:13
493Pho3nix 973 / 1006 (33)2006-11-21 00:16:52
494Wildfireskunk 973 / 1006 (33)2006-12-06 21:21:27
495EVOriginal 973 / 1006 (33)2007-04-02 13:34:56
496Ziergds 973 / 1006 (33)2007-04-17 11:38:24
497KDavis 973 / 1006 (33)2008-04-20 11:55:12
498BBM 973 / 1006 (33)2008-05-11 20:22:09
499ELM 973 / 1006 (33)2010-12-06 22:11:47
500Elemennop 972 / 1006 (34)2005-06-29 22:57:02
501Mole 972 / 1006 (34)2005-10-19 17:16:07
502Sj 972 / 1006 (34)2006-06-17 20:59:24
503SJES! (exclamation point) 972 / 1006 (34)2009-09-04 22:57:28
504abovdeath 972 / 1006 (34)2010-01-28 21:18:02
505Bachi 972 / 1006 (34)2011-04-13 01:54:40
506Shenjoku 971 / 1006 (35)2006-01-09 12:48:59
507Flash_boy_wonder 971 / 1006 (35)2006-01-10 16:59:40
508Ceder 971 / 1006 (35)2006-03-08 15:57:14
509ddrguy42 971 / 1006 (35)2006-04-07 21:22:04
510Natural Killer 971 / 1006 (35)2006-10-01 23:25:34
511Mofesto 971 / 1006 (35)2007-08-30 19:06:37
512tripmacddy 971 / 1006 (35)2008-01-27 16:00:25
513Ryujin 971 / 1006 (35)2008-08-13 00:13:00
514wakassjak 971 / 1006 (35)2010-06-01 03:11:31
515K-Dogg 970 / 1006 (36)2005-03-28 15:13:57
516DJ Drew 970 / 1006 (36)2005-05-11 19:29:55
517Grey 970 / 1006 (36)2006-05-16 14:07:46
518M0dz0rRhye 970 / 1006 (36)2006-07-10 18:52:24
519Ignore This - Delete 970 / 1006 (36)2006-12-02 20:13:31
520Wakalaka 970 / 1006 (36)2007-03-19 15:50:00
521PMNK.MrMeatloaf 970 / 1006 (36)2009-01-13 15:17:55
522MacDuffman 970 / 1006 (36)2009-03-05 00:21:24
523Koruman 970 / 1006 (36)2009-12-07 03:23:30
524kiddtard 969 / 1006 (37)2005-06-05 13:43:35
525little po 969 / 1006 (37)2005-08-04 23:19:14
526Baka 969 / 1006 (37)2008-03-17 01:38:26
527KO0L-Jay- 969 / 1006 (37)2008-08-19 16:29:20
528fidoxevil 968 / 1006 (38)2005-06-28 16:02:29
529master_chadwick 968 / 1006 (38)2005-11-10 13:27:05
530zeppy_gorrila 968 / 1006 (38)2006-03-03 11:47:02
531xinglei 968 / 1006 (38)2006-12-31 04:31:41
532MathmanZero 968 / 1006 (38)2007-01-16 23:12:41
533TGRP.DJay Eckoman 968 / 1006 (38)2007-10-15 20:22:22
534KillerX 968 / 1006 (38)2008-06-30 19:46:30
535Kira 968 / 1006 (38)2009-01-21 07:40:42
536Mario 968 / 1006 (38)2011-04-02 22:09:57
537pokemon is rad 967 / 1006 (39)2005-11-13 18:14:42
538Pseybert 967 / 1006 (39)2006-04-12 02:18:43
539darknote historic 967 / 1006 (39)2006-10-05 18:45:16
540darknote 967 / 1006 (39)2007-04-27 09:54:49
541TROB 967 / 1006 (39)2007-07-20 23:08:01
542A1Major 967 / 1006 (39)2008-04-14 09:40:29
543Dawgbowl 967 / 1006 (39)2009-04-13 19:52:22
544AngelicMix 966 / 1006 (40)2005-02-04 15:03:53
545Devilon 966 / 1006 (40)2005-04-22 02:47:19
546beef 966 / 1006 (40)2005-05-11 23:18:53
547MixMastaPJ 966 / 1006 (40)2005-06-24 01:23:13
548jiro 966 / 1006 (40)2005-08-16 02:56:56
549Ezzo 966 / 1006 (40)2005-10-24 20:35:21
550Doubles Brian 966 / 1006 (40)2006-02-02 14:08:46
551Kayo♥Shine 966 / 1006 (40)2006-08-07 17:23:21
552Kaotical 966 / 1006 (40)2006-08-24 00:43:25
553Shin_B. 966 / 1006 (40)2006-10-05 10:18:37
554jae_ness 966 / 1006 (40)2007-03-11 18:50:09
555Verron 966 / 1006 (40)2007-11-18 02:46:45
556DiVe11 966 / 1006 (40)2008-04-06 00:47:45
557[bWo]Nick 966 / 1006 (40)2008-05-08 08:19:04
558Ashes2Ashes 966 / 1006 (40)2008-05-17 20:46:33
559DaRk176 966 / 1006 (40)2008-07-04 04:06:00
560sephiroth702 966 / 1006 (40)2008-07-09 13:54:09
561DJ NOOZ 966 / 1006 (40)2008-08-05 14:29:06
562speedy 966 / 1006 (40)2009-05-16 09:39:09
563Chad in Japan 965 / 1006 (41)2005-06-10 23:28:02
564ozymandiaz 965 / 1006 (41)2005-10-10 12:09:56
565kreichjr 965 / 1006 (41)2006-05-09 02:59:55
566RedChucksCONGreen 965 / 1006 (41)2006-06-21 23:08:26
567Maxx 965 / 1006 (41)2007-01-17 00:38:33
568thao 965 / 1006 (41)2009-05-23 02:45:02
569jomy82 965 / 1006 (41)2009-09-09 21:45:12
570werd 964 / 1006 (42)2005-04-16 12:21:14
571N-Doh 964 / 1006 (42)2005-04-18 03:23:28
572Rktman 964 / 1006 (42)2005-04-29 18:23:25
573Jenguin 964 / 1006 (42)2005-08-09 05:35:31
574Solid Gold 964 / 1006 (42)2006-04-15 13:02:21
575meatwad300 964 / 1006 (42)2007-04-19 10:26:39
576DRGN 964 / 1006 (42)2007-06-16 02:57:34
577AIDS 964 / 1006 (42)2007-07-02 00:04:54
578Hector_ 964 / 1006 (42)2008-01-08 16:56:15
579danc1005 964 / 1006 (42)2008-01-29 18:15:46
580[Dennys] Ultimeas 963 / 1006 (43)2005-04-25 11:17:15
581Akuma_APN 963 / 1006 (43)2005-09-15 15:23:55
582Eternal 963 / 1006 (43)2009-07-15 16:50:15
583vyhd 963 / 1006 (43)2009-12-09 13:25:23
584Wolfman2000 963 / 1006 (43)2011-12-03 18:31:48
585ERI 962 / 1006 (44)2006-03-16 06:18:19
586bobbolicious 962 / 1006 (44)2006-06-28 17:19:44
587Baggage 962 / 1006 (44)2007-04-07 21:36:54
588lunchbox 962 / 1006 (44)2008-08-31 01:54:56
589TGRP - Neon Kel 962 / 1006 (44)2008-10-29 12:45:01
590vagabond 962 / 1006 (44)2014-02-19 01:57:15
591Tim? 961 / 1006 (45)2006-10-19 17:30:14
592Overgate[7152] 961 / 1006 (45)2007-05-01 18:37:57
593dj raverbat 961 / 1006 (45)2008-09-03 01:55:23
594syntenic 961 / 1006 (45)2008-11-07 03:37:11
595Vospi 961 / 1006 (45)2009-03-06 02:25:15
596SunFox 960 / 1006 (46)2005-06-03 17:27:45
597DJSBX 960 / 1006 (46)2006-03-22 00:56:06
598Y noT 960 / 1006 (46)2006-04-11 01:29:34
599ddrtiggsyall 960 / 1006 (46)2006-11-16 05:38:28
600JedI KiD 960 / 1006 (46)2007-12-23 12:40:58
601derik-lb 960 / 1006 (46)2008-11-04 10:05:27
602Slayer 960 / 1006 (46)2010-09-26 20:00:27
603Retraceable 960 / 1006 (46)2011-11-20 21:56:25
604MailmanX 959 / 1006 (47)2005-05-15 17:31:12
605houroc 959 / 1006 (47)2005-06-18 12:55:07
606Osvaldo 959 / 1006 (47)2005-11-21 13:24:14
607chibiokamiddr 959 / 1006 (47)2005-12-23 22:18:25
608ThaoR 959 / 1006 (47)2006-02-15 07:31:54
609OSC.Shadow 959 / 1006 (47)2006-08-11 02:15:24
610Blown-Upp 959 / 1006 (47)2007-07-31 19:45:42
611Kilroy 959 / 1006 (47)2007-12-19 21:14:34
612Boston 959 / 1006 (47)2008-07-18 03:37:06
613Backlash 958 / 1006 (48)2005-11-08 09:43:49
614-Zero- 958 / 1006 (48)2006-04-19 01:54:08
615Crazylegz 958 / 1006 (48)2006-07-06 13:25:06
616MAXITO 958 / 1006 (48)2006-07-30 08:33:23
617captaincolorblind 958 / 1006 (48)2006-07-30 19:10:32
618Dj BoBeRt 958 / 1006 (48)2006-10-04 23:34:36
619W!LL 958 / 1006 (48)2007-02-14 16:15:31
620H.M.J 958 / 1006 (48)2007-02-24 01:11:30
621Kevin 958 / 1006 (48)2007-07-18 10:59:43
622Space_Cat 958 / 1006 (48)2008-01-20 07:02:57
623Tenphi 958 / 1006 (48)2008-01-26 16:16:53
624SuperNOVA Gian 958 / 1006 (48)2008-12-16 21:54:29
625Acosta 958 / 1006 (48)2009-06-01 13:26:22
626Juliusplex 958 / 1006 (48)2009-11-09 18:49:32
627STM! 957 / 1006 (49)2005-10-16 05:24:59
628Motoko 957 / 1006 (49)2005-11-18 23:28:58
629Kurasa 957 / 1006 (49)2006-08-22 14:08:52
630Shoes290 957 / 1006 (49)2007-09-30 22:06:14
631Raoh 957 / 1006 (49)2008-02-20 20:05:09
632ch 957 / 1006 (49)2008-04-12 13:42:32
633Kakashi_DDR 957 / 1006 (49)2009-06-13 01:16:23
634Judas_Iscariot_X8792 957 / 1006 (49)2009-06-20 04:24:40
635XYT 956 / 1006 (50)2005-05-27 20:26:27
636Disbelief 956 / 1006 (50)2006-10-08 00:24:03
637Revolver 956 / 1006 (50)2007-06-03 15:58:30
638prot0man 956 / 1006 (50)2007-11-18 14:28:25
639The Roll Back Man 956 / 1006 (50)2008-01-29 00:15:14
640Overgate-7152 956 / 1006 (50)2010-03-28 12:56:25
641cheese-wiz 955 / 1006 (51)2005-09-28 09:07:39
642Chii Ayu 955 / 1006 (51)2006-01-02 05:16:48
643iMuD-D.J Vest 955 / 1006 (51)2006-10-19 03:27:45
644VgameT 955 / 1006 (51)2007-12-15 22:56:32
645dannyboyk2 955 / 1006 (51)2009-09-12 22:00:02
646Philipio 954 / 1006 (52)2005-04-10 20:12:36
647Songy 954 / 1006 (52)2006-03-15 03:07:59
648paultd 954 / 1006 (52)2006-08-31 16:35:23
649Toasty 954 / 1006 (52)2006-09-04 20:23:18
650MaverickMechanic 954 / 1006 (52)2008-07-10 22:49:03
651SantiSolari 954 / 1006 (52)2009-04-28 14:17:57
652Johnys Monkeys 954 / 1006 (52)2009-09-12 00:58:30
653Blammo 953 / 1006 (53)2006-01-22 00:53:20
654Simo 953 / 1006 (53)2007-02-25 15:50:38
655Ixion 953 / 1006 (53)2007-04-16 16:06:23
656Foop 953 / 1006 (53)2008-07-14 14:09:49
657sourpatch 952 / 1006 (54)2005-10-21 02:49:38
658jihnsius 952 / 1006 (54)2005-12-17 13:14:35
659DeathNova 952 / 1006 (54)2005-12-17 18:55:38
660Irish 952 / 1006 (54)2006-06-10 00:06:41
661anubis 951 / 1006 (55)2005-10-26 14:11:09
662Aka Karyuu 951 / 1006 (55)2007-01-08 21:52:22
663twixmix 951 / 1006 (55)2007-07-07 02:23:56
664jacob_foster 951 / 1006 (55)2007-08-06 22:44:14
665Agyness 951 / 1006 (55)2009-01-21 05:20:53
666ancsik 951 / 1006 (55)2010-06-20 15:59:28
667Frozenchao 951 / 1006 (55)2013-09-24 10:10:28
668Wormaster 950 / 1006 (56)2005-02-03 15:32:24
669-Waterwings- 950 / 1006 (56)2005-02-05 12:11:49
670LittleMike 950 / 1006 (56)2005-06-14 00:12:56
671DiviTon 950 / 1006 (56)2005-10-23 01:47:56
672Bibbles 950 / 1006 (56)2006-10-23 01:31:48
673WHMY 950 / 1006 (56)2010-10-22 21:39:41
674Poochy 950 / 1006 (56)2013-07-26 02:39:25
675Desoulman 949 / 1006 (57)2005-07-03 00:02:16
676Darkangel 949 / 1006 (57)2005-08-04 06:59:12
677cfusionpm 949 / 1006 (57)2005-10-02 18:04:05
678Torches 949 / 1006 (57)2005-10-15 22:06:36
679Omni Angelic 949 / 1006 (57)2006-03-25 14:31:49
680kurre 949 / 1006 (57)2007-08-26 13:38:34
681chennymountain 949 / 1006 (57)2010-05-08 17:15:16
682Caffymajin 948 / 1006 (58)2005-02-04 01:13:23
683PIMP 948 / 1006 (58)2005-03-25 16:44:14
684Monolithium 948 / 1006 (58)2005-08-20 02:18:42
685Stomp2MehBeat 948 / 1006 (58)2006-03-16 19:06:36
686ddt 948 / 1006 (58)2006-05-17 05:00:59
687Vince 948 / 1006 (58)2006-08-04 20:10:25
688Geechyguy 948 / 1006 (58)2006-08-15 13:32:48
689Rapunzel1029 948 / 1006 (58)2006-12-02 22:15:36
690SDN.Qu1ggleston 948 / 1006 (58)2007-03-06 21:27:09
691black man 948 / 1006 (58)2007-06-19 09:19:50
692Pancakes 948 / 1006 (58)2007-09-26 14:46:39
693NeonZERO 947 / 1006 (59)2005-08-08 01:17:59
694Kopfeldjager 947 / 1006 (59)2005-08-29 00:41:06
695eLL. 947 / 1006 (59)2006-12-04 08:57:12
696ddrmb 946 / 1006 (60)2005-02-14 08:29:10
697no 946 / 1006 (60)2005-04-20 22:45:19
698ShadowStep 946 / 1006 (60)2005-06-07 16:42:55
699wristdirect 946 / 1006 (60)2005-08-06 00:16:13
700Dimitri13wtf 946 / 1006 (60)2005-12-04 02:47:31
701ddrace 946 / 1006 (60)2005-12-11 02:41:51
702yum 946 / 1006 (60)2006-03-05 15:03:12
703The Legend of Rebirth 946 / 1006 (60)2007-08-02 21:35:20
704Finch 946 / 1006 (60)2008-01-08 14:26:16
705CALZINGIANDE 946 / 1006 (60)2008-03-08 04:21:53
706NW330 946 / 1006 (60)2010-09-19 12:35:47
707MilesAMatthias 945 / 1006 (61)2005-10-09 02:28:37
708Fox 945 / 1006 (61)2008-03-19 00:40:54
709zAkAtAk 945 / 1006 (61)2013-02-08 10:44:49
710Mike Young*MRY* 944 / 1006 (62)2005-07-11 19:49:10
711Jic 944 / 1006 (62)2007-01-12 07:04:01
712S!CO 944 / 1006 (62)2009-10-16 13:51:37
713Kembal 944 / 1006 (62)2010-06-28 22:44:09
714InspectorKen 944 / 1006 (62)2012-02-10 22:38:27
715Xatu23456 943 / 1006 (63)2005-07-08 17:37:02
716Ember 943 / 1006 (63)2006-02-06 23:20:06
717dm_iidx 943 / 1006 (63)2009-06-28 16:09:09
718anakedg 942 / 1006 (64)2005-08-11 23:47:25
719FLCL 942 / 1006 (64)2006-09-24 01:21:11
720Robling 942 / 1006 (64)2008-10-31 00:40:09
721ScottyP 941 / 1006 (65)2005-02-04 16:20:44
722Taru 941 / 1006 (65)2005-06-12 17:56:19
723Cip 941 / 1006 (65)2005-07-23 15:03:53
724nmn, 941 / 1006 (65)2006-05-14 09:39:49
725William Howard Taft 941 / 1006 (65)2006-07-22 17:16:28
726yyr 941 / 1006 (65)2006-09-16 01:05:59
727Mitsurugi 941 / 1006 (65)2007-05-16 00:23:58
728GameworksScrub 941 / 1006 (65)2007-06-01 10:41:01
729504SKA 941 / 1006 (65)2010-01-18 13:46:26
730Skirge 940 / 1006 (66)2005-05-26 19:24:28
731Sisco 940 / 1006 (66)2007-08-03 00:19:01
732rockrocks2105 940 / 1006 (66)2007-10-07 13:34:58
733HERO 940 / 1006 (66)2008-05-02 07:17:51
734SMurphy3 939 / 1006 (67)2005-02-05 17:33:25
735Xidi 939 / 1006 (67)2005-10-01 02:05:41
736rasser 939 / 1006 (67)2007-07-15 05:29:27
737Cali_Surfer 938 / 1006 (68)2005-04-19 02:06:12
738DDR-Phr34k 938 / 1006 (68)2005-10-13 23:16:15
739Khan 938 / 1006 (68)2006-04-06 18:10:03
740DSMSAXY 938 / 1006 (68)2007-05-12 02:52:30
741Milodiablo 938 / 1006 (68)2007-07-10 01:25:19
742subliminalATFTB 938 / 1006 (68)2008-11-05 06:46:47
743Kev NOLA 938 / 1006 (68)2009-09-14 20:56:11
744djpc 937 / 1006 (69)2005-03-20 19:52:51
745zrelmar 937 / 1006 (69)2005-05-29 02:13:24
746ColonelWhompers 937 / 1006 (69)2007-12-02 13:14:54
747circfan2 937 / 1006 (69)2008-04-27 16:51:49
748sputnik_the_fats 936 / 1006 (70)2006-06-21 14:08:45
749NWFL.Jope 936 / 1006 (70)2007-10-13 21:19:20
750Tenchi50 936 / 1006 (70)2008-03-22 10:35:34
751aliasnode 936 / 1006 (70)2008-08-31 12:51:22
752Amiboshi 936 / 1006 (70)2008-12-02 17:17:39
753ric 936 / 1006 (70)2010-01-06 16:55:11
754Evisu 935 / 1006 (71)2005-11-01 11:00:27
755TheInuyashaMike 935 / 1006 (71)2006-05-30 01:34:08
756jack_bauer 934 / 1006 (72)2006-06-24 07:30:27
757jegx10 934 / 1006 (72)2008-01-22 21:49:41
758Amalgamayne 934 / 1006 (72)2010-04-09 20:51:36
759the_great_orochi 933 / 1006 (73)2005-07-29 11:46:37
760chocobobetes 933 / 1006 (73)2005-09-27 20:56:14
761Rawkus 933 / 1006 (73)2005-10-14 22:33:27
762dmanne09 933 / 1006 (73)2006-06-13 13:18:14
763kpfox 933 / 1006 (73)2008-10-22 11:59:22
764Aragom 932 / 1006 (74)2005-03-25 00:47:51
765chuckie0424 932 / 1006 (74)2006-03-16 15:37:14
766OJK 932 / 1006 (74)2006-04-01 10:09:43
767Frag 932 / 1006 (74)2006-10-20 12:42:29
768Chris%(percent) 932 / 1006 (74)2007-06-21 23:13:27
769Lavitz 931 / 1006 (75)2005-05-10 15:41:38
770burningheat3rd 931 / 1006 (75)2005-11-22 07:53:38
771.Pqqp. 931 / 1006 (75)2006-02-25 04:53:45
772[TG]Fade 931 / 1006 (75)2006-05-07 05:25:24
773barrett777 931 / 1006 (75)2006-08-23 02:28:22
774Klinkster 931 / 1006 (75)2006-09-04 13:15:28
775IXAM [JOEGELLI] 931 / 1006 (75)2009-02-06 18:18:15
776Sane 930 / 1006 (76)2005-10-22 23:27:33
777Skate323k137 930 / 1006 (76)2006-09-10 11:34:58
778CryptopsyBodom 929 / 1006 (77)2005-04-08 16:24:48
779Random Negro 929 / 1006 (77)2006-02-11 00:13:13
780OniCourseMusha 929 / 1006 (77)2006-03-26 05:38:15
781Archerforthelord 928 / 1006 (78)2006-10-05 13:02:57
782Rod 928 / 1006 (78)2007-08-24 18:44:18
783MZDA 927 / 1006 (79)2005-07-18 18:42:31
784jake 927 / 1006 (79)2006-06-11 00:32:38
785E-Ster (Controller) 927 / 1006 (79)2007-07-18 19:55:58
786LSBE 926 / 1006 (80)2005-10-07 05:17:58
787Julie Q loves you 926 / 1006 (80)2005-10-30 00:33:00
788EternAlParanoiA3000 926 / 1006 (80)2006-01-12 15:23:32
789psychopat 926 / 1006 (80)2006-10-02 10:35:57
790Mog <3 926 / 1006 (80)2008-02-12 21:38:09
791Jack 926 / 1006 (80)2010-04-08 15:54:18
792miho 925 / 1006 (81)2006-06-08 09:23:16
793Overgate 925 / 1006 (81)2006-10-20 10:21:35
794[Overgate] 925 / 1006 (81)2006-11-02 14:57:53
795bdan_man 924 / 1006 (82)2005-02-20 22:49:39
796Silvertear 924 / 1006 (82)2005-03-14 15:17:15
797Tsuteto 924 / 1006 (82)2006-01-21 01:15:13
798DEPkevinMN 924 / 1006 (82)2006-08-11 00:17:17
799Shortman404 923 / 1006 (83)2005-09-01 17:32:49
800Waddle Dee [cheats at DDR] 923 / 1006 (83)2006-09-13 19:20:03
801snakebite019 923 / 1006 (83)2006-10-19 16:36:09
802Trick Master Mint 923 / 1006 (83)2006-11-02 20:36:37
803JadeParker 923 / 1006 (83)2008-10-11 02:59:32
804iemaxx 923 / 1006 (83)2008-12-24 20:55:48
805fr0zenrayz 922 / 1006 (84)2005-05-23 19:30:27
806Matt Clarke 922 / 1006 (84)2009-05-17 21:52:08
807Dexor 922 / 1006 (84)2010-08-18 14:13:58
808uberw00t87 921 / 1006 (85)2005-05-08 16:04:34
809KeyBladed_Riku 921 / 1006 (85)2005-06-13 03:04:26
810EnigmaWave 921 / 1006 (85)2005-08-26 00:34:22
811Kyo Yuy 921 / 1006 (85)2007-12-23 16:36:57
812wahaw 920 / 1006 (86)2005-05-10 18:41:18
813dj.ark 920 / 1006 (86)2005-07-10 01:36:33
814Mat. 920 / 1006 (86)2005-07-19 05:39:12
815T-Bone. 919 / 1006 (87)2005-05-16 00:25:33
816PA System 919 / 1006 (87)2006-04-23 18:36:15
817TeRa 918 / 1006 (88)2005-10-25 20:06:04
818RanciD 917 / 1006 (89)2005-04-07 14:18:18
819Giygas199X 917 / 1006 (89)2006-05-06 00:55:51
820BeeJay 917 / 1006 (89)2008-07-14 00:35:26
821Sirex 917 / 1006 (89)2009-06-21 16:50:33
822Creamy Goodness 916 / 1006 (90)2005-06-14 16:24:28
823Matzi 916 / 1006 (90)2005-07-26 21:00:44
824Argamius 916 / 1006 (90)2006-07-03 14:24:32
825davesnydrome 916 / 1006 (90)2007-06-12 10:16:01
826Howie: Zukin-Man 915 / 1006 (91)2005-03-05 03:44:24
827OmniQuark 915 / 1006 (91)2005-05-17 15:26:20
828red_eyed_bandit 915 / 1006 (91)2005-09-15 18:39:41
8291337 915 / 1006 (91)2006-01-30 03:49:18
830pimpmachine 915 / 1006 (91)2006-10-04 01:23:04
831TehWhack 915 / 1006 (91)2006-11-05 18:32:25
832xpiromx 914 / 1006 (92)2006-02-15 12:19:32
833Ledline 914 / 1006 (92)2006-03-20 21:48:12
834DDRmaster 914 / 1006 (92)2007-07-22 10:25:54
835Jed 914 / 1006 (92)2009-06-12 00:01:39
836escape777 913 / 1006 (93)2006-05-19 00:51:00
837[+Duracell-] 913 / 1006 (93)2006-07-22 20:29:25
838CreemyNougat 913 / 1006 (93)2007-11-10 22:46:27
839GCR 912 / 1006 (94)2006-03-16 09:07:58
840Kayin 912 / 1006 (94)2006-10-27 13:25:50
841THECapedCaper 912 / 1006 (94)2007-07-27 18:31:42
842hoody 911 / 1006 (95)2005-06-27 17:26:40
843NARF 911 / 1006 (95)2007-08-13 00:17:22
844junexan 910 / 1006 (96)2005-03-15 18:30:12
845Duckey 910 / 1006 (96)2005-12-15 13:10:45
846Pineapplekimaroo 910 / 1006 (96)2006-08-08 23:05:40
847Lionheart 910 / 1006 (96)2007-05-29 19:18:44
848Dairydude 910 / 1006 (96)2009-09-25 13:37:55
849DDR Phantom 909 / 1006 (97)2005-10-25 00:52:47
850TheAussie2005 909 / 1006 (97)2006-06-22 01:57:00
851DDR_Goten 909 / 1006 (97)2006-07-04 18:53:02
852toml 909 / 1006 (97)2006-09-04 15:36:42
853SFKhoa 909 / 1006 (97)2007-08-01 09:54:56
854Auron0 909 / 1006 (97)2008-01-13 12:03:38
855Asylum_Zero 908 / 1006 (98)2005-03-27 03:12:54
856cuivien 908 / 1006 (98)2005-07-29 05:15:38
857Canuck05 908 / 1006 (98)2005-12-24 20:02:18
858IcyStaticBlast 907 / 1006 (99)2005-02-26 19:10:20
859GCRamone 907 / 1006 (99)2005-03-17 11:43:33
860JESSI V 907 / 1006 (99)2005-06-04 18:36:40
861kmfl300 907 / 1006 (99)2007-09-21 22:29:47
862Alex63089 907 / 1006 (99)2010-05-30 22:49:26
863ArtsyGirlStace 906 / 1006 (100)2005-04-11 21:06:04
864Kivi 906 / 1006 (100)2006-11-18 19:22:11
865charlie#10 905 / 1006 (101)2006-07-23 17:08:44
866melink14 905 / 1006 (101)2006-12-14 01:15:37
867titandude21 905 / 1006 (101)2008-05-13 19:08:40
868Zhou Yu 47 904 / 1006 (102)2005-02-18 09:14:00
869TheKnightOfNee 904 / 1006 (102)2005-02-20 03:06:18
870RevenG 904 / 1006 (102)2006-06-15 16:42:59
871rathstar 903 / 1006 (103)2005-08-20 22:52:53
872sonicsp33d 903 / 1006 (103)2006-11-12 09:58:08
873Xephy-kun 903 / 1006 (103)2007-06-28 15:09:48
874Dirtydawg21 902 / 1006 (104)2005-08-08 03:31:20
875SynfulTorment 902 / 1006 (104)2005-09-03 02:52:25
876oni 902 / 1006 (104)2006-05-04 20:20:10
877BlueRevolution 901 / 1006 (105)2005-02-03 16:22:48
878mdigibou 901 / 1006 (105)2005-11-13 11:54:50
879Metalcraft 901 / 1006 (105)2006-05-06 20:52:03
880h34rtgrm 901 / 1006 (105)2007-08-12 11:08:07
881GERARDAMO 901 / 1006 (105)2009-01-29 13:50:59
882Nightmare 900 / 1006 (106)2005-05-08 16:28:37
883MrKoopa 900 / 1006 (106)2005-09-23 20:59:24
884Samus Hikaru 900 / 1006 (106)2006-01-09 23:13:26
885Crazy Crisco 900 / 1006 (106)2006-01-18 13:42:42
886Kevin01 900 / 1006 (106)2006-10-21 12:43:31
887tsukihimeblood 900 / 1006 (106)2007-02-20 22:29:19
888Ex-RaVe 900 / 1006 (106)2007-03-21 16:40:58
889Richard 900 / 1006 (106)2007-10-20 23:19:47
890Elisa 900 / 1006 (106)2008-04-24 13:11:59
891OSM.Ryan2 899 / 1006 (107)2007-03-03 19:22:39
892Andrew "The Big Doomsday" Michael May 899 / 1006 (107)2008-01-21 00:24:41
893Zero 898 / 1006 (108)2005-05-21 03:20:20
894Jimizzle 898 / 1006 (108)2006-02-25 18:41:32
895beat-in-soul 898 / 1006 (108)2009-03-10 12:23:10
896JJ 897 / 1006 (109)2005-03-21 21:19:33
897Yet_Inue 897 / 1006 (109)2005-09-11 00:52:19
898ShyGuy 897 / 1006 (109)2005-09-11 14:04:22
899Dan Dee 897 / 1006 (109)2006-11-23 00:57:38
900Angeles_7 897 / 1006 (109)2007-02-07 17:57:54
901xeclipse 896 / 1006 (110)2005-12-24 17:29:21
902WickedStylis 896 / 1006 (110)2006-09-28 08:30:52
903Hatake Kakashi 896 / 1006 (110)2007-03-05 12:28:50
904Xavi 895 / 1006 (111)2005-09-06 22:25:20
905Justin 895 / 1006 (111)2006-06-25 17:06:32
906Ducky 894 / 1006 (112)2005-04-04 16:23:26
907Sedare 894 / 1006 (112)2005-05-18 14:26:59
908Lefty 894 / 1006 (112)2006-02-10 13:06:05
909SpazticBlue 894 / 1006 (112)2006-10-02 22:51:20
910dave_the_great 894 / 1006 (112)2007-07-28 15:15:41
911Frollard 893 / 1006 (113)2005-05-29 19:07:24
912soxrule86 893 / 1006 (113)2006-04-24 18:51:53
913kifreak 893 / 1006 (113)2006-08-15 20:46:46
914n4n4k1 892 / 1006 (114)2005-05-16 10:04:40
915EvanC 892 / 1006 (114)2005-07-26 05:46:57
916ddraddict 892 / 1006 (114)2005-08-22 23:30:13
917Highflyer 892 / 1006 (114)2006-06-06 13:11:29
918pdgy 892 / 1006 (114)2006-10-08 13:05:44
919DJ Shinobi 891 / 1006 (115)2005-11-30 21:22:22
920Reon 891 / 1006 (115)2006-02-05 00:44:29
921ShtangenZirkel 891 / 1006 (115)2008-11-15 14:17:14
922Synaesthesia 890 / 1006 (116)2006-09-09 11:59:07
923off black 889 / 1006 (117)2005-09-20 21:01:18
924damus unlimited 889 / 1006 (117)2005-12-19 09:29:21
925DemonHybrid 889 / 1006 (117)2006-06-24 16:24:34
926AllEnvy 889 / 1006 (117)2007-03-22 07:31:33
927demonhunterbob5 888 / 1006 (118)2005-06-24 17:52:50
928IstariAsuka 888 / 1006 (118)2007-12-03 13:47:59
929Rodena 887 / 1006 (119)2005-10-19 22:44:47
930Paranoia_Brother 887 / 1006 (119)2005-11-23 16:06:05
931Black Phoenix 887 / 1006 (119)2006-01-28 08:46:18
932curlyfryz 886 / 1006 (120)2005-07-26 17:28:56
933JMIKEgq 886 / 1006 (120)2005-10-05 09:02:04
934ShadowWalker 886 / 1006 (120)2006-08-05 23:41:12
935dJbunGle 885 / 1006 (121)2006-04-27 21:18:24
936Canagape 885 / 1006 (121)2006-05-14 01:06:33
937Stevensamypp 885 / 1006 (121)2010-12-13 11:51:35
938xequar 884 / 1006 (122)2005-04-05 12:37:50
939vampire_mcr 884 / 1006 (122)2006-08-10 11:03:15
940m!sh 884 / 1006 (122)2010-04-24 04:42:32
941getwet 883 / 1006 (123)2006-08-08 10:15:53
942Icefox 883 / 1006 (123)2007-08-04 01:36:03
943Ryuu 882 / 1006 (124)2005-10-03 07:57:01
944Trigger_Happy 882 / 1006 (124)2007-09-22 23:33:07
945CrzyLgz_Home 881 / 1006 (125)2005-02-09 13:51:42
946OshawaACE 881 / 1006 (125)2005-10-02 21:43:01
947khaotic 881 / 1006 (125)2007-05-16 06:16:42
948Anguirel 879 / 1006 (127)2006-06-27 20:16:49
949DDRman 879 / 1006 (127)2006-10-11 17:50:16
950The Wise Fool 879 / 1006 (127)2006-12-18 19:57:01
951Mikami. [FLOW] 879 / 1006 (127)2008-04-26 22:34:24
952Mr.CowgirlAA9 878 / 1006 (128)2005-11-22 00:11:00
953DMN 878 / 1006 (128)2006-03-08 21:18:33
954zyl 878 / 1006 (128)2006-06-05 20:17:34
955jynks 878 / 1006 (128)2008-07-08 09:22:31
956Lupes 877 / 1006 (129)2008-01-20 11:58:48
957INFAMOUSpat 876 / 1006 (130)2005-06-08 23:19:09
958Apoc 876 / 1006 (130)2007-05-10 06:30:14
959StarOceanFreakX 875 / 1006 (131)2005-04-30 18:05:51
960wag! 874 / 1006 (132)2005-06-07 19:59:34
961the_fly 874 / 1006 (132)2006-08-31 14:44:11
962Dafreakenpope 874 / 1006 (132)2006-09-28 20:58:18
963uglyd0g 873 / 1006 (133)2005-04-17 22:09:39
964Frosty555 873 / 1006 (133)2005-06-10 00:26:42
965MegaXMaxX 873 / 1006 (133)2006-04-19 21:28:44
966Hurricane1080 873 / 1006 (133)2007-05-07 23:07:31
967tgcid 872 / 1006 (134)2007-09-21 15:35:39
968SPazZTiK 871 / 1006 (135)2005-11-09 22:55:47
969Grekol 871 / 1006 (135)2006-02-07 20:48:37
970dj doubleclick 871 / 1006 (135)2008-10-28 07:51:41
971Okashira 870 / 1006 (136)2005-02-04 01:07:29
972panch 870 / 1006 (136)2006-04-03 11:53:42
973Tear 870 / 1006 (136)2006-04-15 00:25:04
974thehack 869 / 1006 (137)2006-07-23 19:00:20
975Lenni 869 / 1006 (137)2006-12-27 00:02:47
976OMG Paige! 869 / 1006 (137)2014-12-31 14:42:13
977Neo Diverg 868 / 1006 (138)2005-06-27 15:45:25
978CrzyLgz 868 / 1006 (138)2009-02-11 16:10:04
979douluvurself 867 / 1006 (139)2005-09-16 01:36:09
980bowlerman5171 867 / 1006 (139)2005-11-07 15:43:00
981Atomsk 867 / 1006 (139)2006-10-02 22:16:32
982Alex[O_o] 867 / 1006 (139)2008-12-31 03:28:37
983Grind 867 / 1006 (139)2009-10-15 14:16:28
984K3587 867 / 1006 (139)2010-08-20 16:27:39
985def-one 866 / 1006 (140)2005-04-28 21:52:56
986Barbaloot 866 / 1006 (140)2006-05-18 01:29:02
987Shinji-kun[NGE] 866 / 1006 (140)2008-04-22 11:45:02
988Muzzle 865 / 1006 (141)2006-10-28 20:50:52
989ProphecyofOne 864 / 1006 (142)2005-02-11 11:06:37
990[JoNa] 864 / 1006 (142)2005-11-26 23:07:04
991YiffilucaZZ 864 / 1006 (142)2008-12-14 10:46:54
992Metroid11 863 / 1006 (143)2005-02-13 21:45:50
993typobox43 863 / 1006 (143)2007-08-15 15:47:55
994Sloth 863 / 1006 (143)2008-12-09 05:30:45
995Dark Luke 862 / 1006 (144)2005-02-07 09:25:19
996Storm301 862 / 1006 (144)2005-05-05 22:37:21
997ConMan 862 / 1006 (144)2006-04-11 00:19:10
998FlamingHero55 862 / 1006 (144)2006-08-07 13:39:55
999ReschDAWG. 862 / 1006 (144)2009-12-14 12:43:10
1000Minai 861 / 1006 (145)2005-02-13 09:23:24
1001shadowsfall1998 861 / 1006 (145)2005-09-06 16:40:01
1002Merciless.TD 858 / 1006 (148)2007-10-01 12:15:17
1003fie 856 / 1006 (150)2005-08-22 20:04:39
1004Demon_Bryant 856 / 1006 (150)2005-11-24 22:35:28
1005JeCCo 856 / 1006 (150)2005-12-01 02:03:44
1006Mach Speed Nigga 856 / 1006 (150)2006-03-31 09:45:03
1007kitejav 856 / 1006 (150)2006-06-24 20:53:04
1008Wadoodle 856 / 1006 (150)2007-09-04 21:51:46
1009ADR 854 / 1006 (152)2008-03-19 20:24:39
1010N00b_Saib0t 853 / 1006 (153)2005-08-11 17:34:13
1011riapsed 853 / 1006 (153)2005-10-17 03:16:42
1012randrord 853 / 1006 (153)2006-04-20 01:14:20
1013Surfer_Clock 853 / 1006 (153)2009-05-24 22:35:07
1014Travelsonic 853 / 1006 (153)2011-01-05 21:37:33
1015HT 852 / 1006 (154)2007-08-09 20:04:57
1016HellBent 851 / 1006 (155)2005-08-15 20:03:58
1017Talon1 851 / 1006 (155)2006-05-23 21:11:50
1018Polar Bear 851 / 1006 (155)2006-08-09 22:57:03
1019Furo 850 / 1006 (156)2005-06-17 19:58:05
1020Prodigy Child 850 / 1006 (156)2006-08-13 12:18:05
1021Mercurius 849 / 1006 (157)2006-01-20 22:34:25
1022Windows 849 / 1006 (157)2007-06-16 12:07:54
1023specialK32159 848 / 1006 (158)2005-06-21 09:54:35
1024cubbi 847 / 1006 (159)2005-02-09 02:29:16
1025amart565 847 / 1006 (159)2005-03-25 00:37:38
1026Takashaz 847 / 1006 (159)2010-09-19 04:52:32
1027sakuraherbie 846 / 1006 (160)2009-02-14 08:44:06
1028DDRGirl0105 846 / 1006 (160)2009-08-03 00:19:43
1029Neotic_14 844 / 1006 (162)2005-07-20 22:23:49
1030Deuce 844 / 1006 (162)2005-08-02 21:34:21
1031MS.Moonlight-Dumarys8 843 / 1006 (163)2009-12-25 11:27:53
1032demo 842 / 1006 (164)2005-06-28 02:37:18
1033FarwestcoastX 842 / 1006 (164)2005-08-04 18:37:20
1034CidGregor 842 / 1006 (164)2005-09-14 14:53:28
1035Personamb 842 / 1006 (164)2006-02-15 06:07:30
1036The Decline 841 / 1006 (165)2005-12-17 04:16:35
1037DJPao 841 / 1006 (165)2008-02-14 19:24:49
1038T-4 840 / 1006 (166)2005-03-20 02:10:52
1039g0th1csp00n 840 / 1006 (166)2006-05-20 18:56:22
1040Think 839 / 1006 (167)2006-08-13 22:40:34
1041Red Kuma 838 / 1006 (168)2006-03-13 14:58:38
1042Sparkydog 837 / 1006 (169)2005-11-06 14:26:19
1043Pistol 837 / 1006 (169)2006-03-23 22:02:05
1044impulse617 837 / 1006 (169)2006-09-09 16:14:04
1045spkru 837 / 1006 (169)2006-11-30 14:34:01
1046ChaosFusion 837 / 1006 (169)2007-04-27 15:41:31
1047HBV 836 / 1006 (170)2005-03-17 21:26:35
1048ArvinG 836 / 1006 (170)2006-03-14 17:20:41
1049MTwieg 835 / 1006 (171)2005-04-07 17:00:21
1050Madonna 835 / 1006 (171)2005-11-10 22:13:18
1051megabeatmanmania 834 / 1006 (172)2009-08-15 01:51:32
1052SpinSir 833 / 1006 (173)2005-08-27 14:03:28
10531337Gaara 833 / 1006 (173)2005-10-08 16:36:28
1054UnderDog 833 / 1006 (173)2006-04-09 11:40:18
1055Ryebread 832 / 1006 (174)2005-08-03 00:15:56
1056TigA 832 / 1006 (174)2005-09-23 06:11:49
1057Gwaihir 832 / 1006 (174)2006-05-14 01:48:20
1058Kane Martyr 832 / 1006 (174)2006-11-28 14:39:20
1059Bronzong 832 / 1006 (174)2008-01-03 22:26:39
1060reikon 831 / 1006 (175)2006-08-03 21:03:55
1061NightMarth 830 / 1006 (176)2006-09-30 22:52:59
1062Secr 830 / 1006 (176)2008-03-19 23:31:13
1063Trav 829 / 1006 (177)2006-05-19 14:07:49
1064LoveShine 829 / 1006 (177)2008-12-30 18:51:44
1065Frenchie 829 / 1006 (177)2009-04-29 16:05:32
1066Rainault 828 / 1006 (178)2005-11-09 13:37:55
1067feature 827 / 1006 (179)2011-03-16 16:27:10
1068Ian_Keith 825 / 1006 (181)2005-06-05 09:39:56
1069Justican 825 / 1006 (181)2006-09-16 14:42:45
1070Dark X Dragon 825 / 1006 (181)2008-02-12 17:09:24
1071NK50K 824 / 1006 (182)2005-07-31 13:05:16
1072QuicKz 824 / 1006 (182)2005-10-07 19:09:25
1073Thanh 824 / 1006 (182)2006-07-12 13:19:01
1074Warlock 823 / 1006 (183)2006-02-11 12:03:01
1075wschmrdr 823 / 1006 (183)2007-06-07 19:01:53
10762mB 822 / 1006 (184)2005-02-21 19:26:08
1077SugarMcDaddy 821 / 1006 (185)2005-09-11 22:32:35
1078dancingtofu 821 / 1006 (185)2007-09-16 01:26:00
1079argentosomatic 820 / 1006 (186)2006-04-02 18:42:45
1080GH! 820 / 1006 (186)2006-04-18 18:07:44
1081Greg Middleton 820 / 1006 (186)2006-07-30 11:25:18
1082NDGO 820 / 1006 (186)2007-04-05 14:22:22
1083jon 820 / 1006 (186)2007-10-03 20:04:20
1084Chooser of the Slain 820 / 1006 (186)2008-06-28 23:24:18
1085Brallit 819 / 1006 (187)2005-07-27 23:27:40
1086Skankenstein 819 / 1006 (187)2006-03-04 11:35:55
1087Xander-Blue 819 / 1006 (187)2006-09-17 16:21:31
1088IcyWeazel 818 / 1006 (188)2005-09-11 13:11:09
1089danceman85 817 / 1006 (189)2006-07-28 15:23:43
1090BlackFrost 817 / 1006 (189)2006-11-24 16:07:47
1091carlitos 817 / 1006 (189)2006-12-16 18:30:30
1092Red 817 / 1006 (189)2009-04-04 16:06:23
1093legendofj 815 / 1006 (191)2006-03-04 23:42:34
1094Mariogirl 815 / 1006 (191)2006-08-14 18:11:58
1095CorruptZero 815 / 1006 (191)2007-03-24 10:29:22
1096Roly 815 / 1006 (191)2010-02-06 00:06:07
1097Cebman 814 / 1006 (192)2005-02-06 12:32:38
1098CZA 814 / 1006 (192)2005-08-16 22:41:49
1099MikiRei 814 / 1006 (192)2006-02-22 07:38:27
1100Dancing Trumpet 813 / 1006 (193)2005-04-01 09:11:27
1101ncmhp 813 / 1006 (193)2008-04-15 14:07:33
1102Mega29 811 / 1006 (195)2008-07-07 17:18:48
1103MasterMargie 810 / 1006 (196)2006-07-15 16:51:55
1104MazriM TaiM 809 / 1006 (197)2005-08-31 00:58:41
1105luckyneko 809 / 1006 (197)2009-03-20 10:34:02
1106TheFuzz 808 / 1006 (198)2005-03-25 22:02:05
1107Snooj 808 / 1006 (198)2005-07-24 18:26:18
1108Jew 808 / 1006 (198)2005-08-20 02:09:39
1109Tigra 808 / 1006 (198)2008-11-03 16:27:16
1110SDN.SandmanOrion57 806 / 1006 (200)2006-07-15 21:29:06
1111Xelly 806 / 1006 (200)2007-01-21 08:54:19
1112oni_DDR 806 / 1006 (200)2009-03-27 06:49:11
1113Maven 805 / 1006 (201)2005-05-17 00:53:49
1114Sereni 805 / 1006 (201)2009-01-25 01:32:27
1115inthesync 803 / 1006 (203)2005-05-20 22:55:05
1116inacarcrash 803 / 1006 (203)2006-01-23 09:34:35
1117midknight28 803 / 1006 (203)2006-08-01 00:08:52
1118XBmaster 802 / 1006 (204)2007-02-11 17:07:10
1119JKnLW 800 / 1006 (206)2005-08-09 23:26:10
1120DropTheBombIsBack 800 / 1006 (206)2005-11-20 11:47:38
1121Tau 799 / 1006 (207)2008-11-13 15:49:30
1122DoctorJay 796 / 1006 (210)2005-06-16 21:47:03
1123CHABOT 795 / 1006 (211)2006-04-06 02:07:32
1124Luci 794 / 1006 (212)2005-05-14 00:11:34
1125Limitin 793 / 1006 (213)2006-06-29 13:57:38
1126oblivion 793 / 1006 (213)2009-03-10 09:11:43
1127drkhwk 792 / 1006 (214)2005-06-24 11:24:23
1128enjoi_ 792 / 1006 (214)2007-02-18 06:20:00
1129ADavalosJR 792 / 1006 (214)2007-05-30 14:57:24
1130ekzakkly 791 / 1006 (215)2005-05-17 20:39:45
1131another ITG convert 791 / 1006 (215)2005-06-08 18:34:21
1132lindilou 791 / 1006 (215)2006-10-13 06:00:15
1133Boogiepop 791 / 1006 (215)2007-10-09 00:03:57
1134Aboutt 790 / 1006 (216)2005-02-03 20:09:17
1135muse 789 / 1006 (217)2008-10-02 22:30:54
1136Shadow Protocol 788 / 1006 (218)2008-02-29 11:59:06
1137KiLla9 787 / 1006 (219)2006-09-09 21:26:37
1138.69 786 / 1006 (220)2005-04-12 08:03:09
1139DJ jesus 786 / 1006 (220)2005-04-13 12:12:19
1140love_shine 786 / 1006 (220)2005-06-13 09:31:09
1141heresjoey13 786 / 1006 (220)2005-09-04 20:08:25
1142Wani 785 / 1006 (221)2007-07-08 23:42:44
1143Jazz Samurai 783 / 1006 (223)2005-02-03 14:29:41
1144C.A.S 783 / 1006 (223)2006-01-23 18:25:06
1145Mystery 783 / 1006 (223)2006-03-31 11:44:53
1146Xanhae 783 / 1006 (223)2008-01-27 22:40:46
1147mistaFOO 782 / 1006 (224)2006-03-11 22:10:54
1148Zareul Zanzabar 781 / 1006 (225)2005-02-06 00:21:30
1149Nova1 780 / 1006 (226)2005-05-30 23:28:16
1150MaxWhore 779 / 1006 (227)2005-11-18 00:57:17
1151Jaytron 777 / 1006 (229)2006-01-25 08:10:11
1152jascocomalabishi 776 / 1006 (230)2009-08-28 07:09:47
1153gorin 775 / 1006 (231)2005-03-05 20:40:37
1154Rufus_4_President 774 / 1006 (232)2005-04-11 23:19:16
11552xtreme 774 / 1006 (232)2005-05-08 21:38:21
1156QuickStep 773 / 1006 (233)2005-11-29 22:46:53
1157THE BOSTON MANIAC 772 / 1006 (234)2005-07-28 13:11:57
1158DJ JS ~for extreme~ 771 / 1006 (235)2005-11-19 11:23:18
1159elsqueako 771 / 1006 (235)2007-06-23 14:55:37
1160vslayerin 770 / 1006 (236)2005-07-30 18:24:25
1161JimTheFly 769 / 1006 (237)2005-04-20 22:24:07
1162Phylicia 769 / 1006 (237)2006-08-07 04:26:00
1163JMAD 768 / 1006 (238)2006-07-30 21:20:54
1164Ark 767 / 1006 (239)2005-05-08 18:27:19
1165Coyote 766 / 1006 (240)2006-03-04 03:09:56
1166howardleung 766 / 1006 (240)2006-04-13 23:15:29
1167Haruka 765 / 1006 (241)2005-02-06 09:01:20
1168Styl 764 / 1006 (242)2008-03-21 10:28:18
1169TakeWalker 763 / 1006 (243)2005-04-13 14:57:07
1170Layzie 763 / 1006 (243)2005-08-15 04:53:05
1171ddrboy300 763 / 1006 (243)2005-08-31 22:20:07
1172hkmusicfreak0 763 / 1006 (243)2005-12-03 22:18:11
1173darkjesus 761 / 1006 (245)2005-05-15 02:02:49
1174Sugoi_Sakura 760 / 1006 (246)2006-01-26 20:43:27
1175GrayXP 758 / 1006 (248)2005-05-31 17:24:26
1176Techno Riot 758 / 1006 (248)2005-09-11 00:21:32
1177Pixi 758 / 1006 (248)2006-01-28 13:44:44
1178Alto50 758 / 1006 (248)2006-08-14 17:09:52
1179vandal 757 / 1006 (249)2005-03-16 20:56:51
1180wbtlevi 757 / 1006 (249)2005-09-18 19:52:49
1181Level 9 Chao 754 / 1006 (252)2005-12-16 16:56:49
1182HyDrA 753 / 1006 (253)2005-03-27 23:40:37
1183timl 753 / 1006 (253)2012-05-08 01:36:51
1184nlite 751 / 1006 (255)2009-06-06 10:53:45
1185greyGizmo 750 / 1006 (256)2005-04-16 00:33:37
1186snetwork 750 / 1006 (256)2012-08-10 15:00:23
1187darkmage 749 / 1006 (257)2005-08-23 20:25:59
1188Narsk 749 / 1006 (257)2006-11-27 23:41:48
1189OFfiCiaL 748 / 1006 (258)2005-03-23 15:39:29
1190TIME lapse 1191 745 / 1006 (261)2008-01-19 23:06:48
1191RookieX 744 / 1006 (262)2005-02-23 18:08:21
1192Da-RiSiN-sMoKe 742 / 1006 (264)2005-11-02 14:14:32
1193kickassfighter 742 / 1006 (264)2005-12-20 07:07:43
1194pyromaniac 742 / 1006 (264)2008-03-17 19:52:10
1195Vangulus The Great 740 / 1006 (266)2005-06-26 02:55:59
1196kfreshdangler 740 / 1006 (266)2006-08-05 04:23:15
1197pokey_penguin 740 / 1006 (266)2008-07-04 15:08:15
1198WarA22 739 / 1006 (267)2005-02-03 21:54:43
1199Dittokrasher 739 / 1006 (267)2006-10-07 01:28:09
1200Teh_sand 738 / 1006 (268)2010-04-29 09:56:41
1201Marko 736 / 1006 (270)2008-03-25 12:43:16
1202NaokiBagMagic 732 / 1006 (274)2005-04-04 15:43:33
1203C: 730 / 1006 (276)2005-07-31 21:56:59
1204Nikon 728 / 1006 (278)2005-08-10 01:08:41
1205Darkslayer717 727 / 1006 (279)2005-08-03 02:56:16
1206ObsessedOne 727 / 1006 (279)2005-09-22 18:36:01
1207tumsquared 725 / 1006 (281)2006-08-16 16:06:06
1208Noah 723 / 1006 (283)2005-09-22 17:19:18
1209Quatremaniac 722 / 1006 (284)2005-06-16 03:04:52
1210DJ Tornado 721 / 1006 (285)2006-07-29 00:36:59
1211Kika 720 / 1006 (286)2005-11-17 20:54:21
1212jacoblancaster 720 / 1006 (286)2007-08-01 03:31:30
1213maarafsh 718 / 1006 (288)2005-05-30 15:27:36
1214Timmeh! 718 / 1006 (288)2005-06-19 08:37:41
1215Deluzions of Addrquacy 714 / 1006 (292)2005-02-03 18:26:30
1216Ditto 710 / 1006 (296)2006-03-04 23:22:01
1217aoi_otaku 709 / 1006 (297)2006-04-12 03:44:01
1218Shaft's Big Score 708 / 1006 (298)2005-04-12 18:18:39
1219kf5880 707 / 1006 (299)2005-08-23 15:46:43
122042987 706 / 1006 (300)2005-02-10 08:43:56
1221DDRMANIAC66 703 / 1006 (303)2005-05-22 09:47:07
1222armagedon46 703 / 1006 (303)2005-07-12 18:17:36
1223twizted 702 / 1006 (304)2005-03-24 11:46:08
1224DJ Frost 699 / 1006 (307)2005-07-22 05:01:55
1225Dust 697 / 1006 (309)2005-08-03 23:24:22
1226dimman 697 / 1006 (309)2005-12-06 13:57:59
1227DynaRaveRemix 696 / 1006 (310)2005-05-26 13:17:33
1228asakura 695 / 1006 (311)2005-07-23 19:41:03
1229Thumbs_Up 688 / 1006 (318)2007-02-02 22:59:35
1230lightning_hero 686 / 1006 (320)2005-10-13 23:05:07
1231Niall 684 / 1006 (322)2012-04-08 13:06:03
1232Hakumei 682 / 1006 (324)2005-05-19 23:21:53
1233Petey 678 / 1006 (328)2005-12-04 00:00:08
1234Shard 678 / 1006 (328)2007-02-07 22:16:55
1235Jeffreyw 664 / 1006 (342)2005-07-17 22:21:15
1236Mr. Papaya 656 / 1006 (350)2005-07-15 15:31:59
1237fig 655 / 1006 (351)2005-03-07 09:25:55
1238TezukaKunmitsu 655 / 1006 (351)2007-04-10 00:15:16
1239JonCondor 655 / 1006 (351)2009-03-11 23:41:34
1240levEthan 650 / 1006 (356)2005-05-22 21:09:34
1241Kamigawa 644 / 1006 (362)2005-04-15 10:52:52
1242SSMX_VEGETA 638 / 1006 (368)2008-05-06 04:53:44
1243Spinn 634 / 1006 (372)2007-03-02 20:55:30
1244epilonious 526 / 1006 (480)2005-03-08 15:45:30
1245PBoy227 524 / 1006 (482)2005-02-04 10:50:46
1246Goldade 359 / 1006 (647)2005-03-02 21:58:46

Home |  Forum |  Syncopedia |  User List |  Report Bug |  Contact Us